Simultaneous Nadir Overpasses (SNOs) Predictions

Prediction of SNOs between GOES-16 and METOP-C Satellite Orbit:

Table of predicted SNOs for the next 14.0 days since TLE Epoch: 7/25/2020
Index Date Time (GOES-16) GOES-16 Lat,Lon METOP-C Lat,Lon Distance(km) Time Diff (sec)
1 07/25/2020 02:24:30 0.03, -75.19 0.40, -73.64 176.87 80
2 07/26/2020 14:46:02 -0.03, -75.20 0.64, -78.20 341.83 80
3 07/27/2020 14:22:42 -0.03, -75.20 -0.49, -73.21 227.57 80
4 07/29/2020 02:44:21 0.02, -75.20 -0.53, -77.80 296.16 80
5 07/30/2020 02:21:01 0.03, -75.20 0.54, -72.80 273.38 80
6 07/31/2020 14:42:33 -0.02, -75.22 0.43, -77.37 244.56 80
7 08/01/2020 14:19:13 -0.03, -75.22 -0.64, -72.36 325.30 80
8 08/03/2020 02:40:52 0.03, -75.23 -0.38, -76.96 197.53 80
9 08/04/2020 02:17:33 0.04, -75.24 0.75, -71.97 372.70 80
10 08/05/2020 14:39:04 -0.04, -75.27 0.27, -76.52 143.79 80
11 08/06/2020 14:15:44 -0.05, -75.28 -0.86, -71.53 427.08 80
